POLYTECH-UNIVERSE 3 (R*)

Last updated on Fri Dec 19 2025 00:03:12 GMT+0000 (Coordinated Universal Time)

1 57191U 23091AB 25352.60905990 .00004499 00000+0 23058-3 0 9999 2 57191 97.5336 46.5581 0017231 41.4807 318.7730 15.16961967136555
UTC large
Height (km)
Speed (km/s)
/
Latitude / Longitude
Inclination (degrees)
Orbital Period (minutes)
Azimuth
Elevation
Range (km)
Doppler Factor

Next 0 passes for location: London (51.5072 / 0.1276)

Sorry there are no passes over London.